Year,Month,Day,Hour,Minute,Value (Times are PST for temperature in C)
2007,06,08,00,00,11.10
2007,06,08,00,01,11.10
2007,06,08,00,02,11.10
2007,06,08,00,03,11.10
2007,06,08,00,04,11.10
2007,06,08,00,05,11.10
2007,06,08,00,06,11.10
2007,06,08,00,07,11.10
2007,06,08,00,08,11.10
2007,06,08,00,09,11.10
2007,06,08,00,10,11.10
2007,06,08,00,11,11.10
2007,06,08,00,12,11.10
2007,06,08,00,13,11.10
2007,06,08,00,14,11.10
2007,06,08,00,15,11.10
2007,06,08,00,16,11.10
2007,06,08,00,17,11.00
2007,06,08,00,18,10.90
2007,06,08,00,19,10.90
2007,06,08,00,20,10.90
2007,06,08,00,21,10.90
2007,06,08,00,22,10.90
2007,06,08,00,23,10.90
2007,06,08,00,24,10.90
2007,06,08,00,25,10.90
2007,06,08,00,26,10.90
2007,06,08,00,27,10.90
2007,06,08,00,28,10.90
2007,06,08,00,29,10.80
2007,06,08,00,30,10.80
2007,06,08,00,31,10.80
2007,06,08,00,32,10.80
2007,06,08,00,33,10.70
2007,06,08,00,34,10.70
2007,06,08,00,35,10.70
2007,06,08,00,36,10.70
2007,06,08,00,37,10.70
2007,06,08,00,38,10.60
2007,06,08,00,39,10.60
2007,06,08,00,40,10.60
2007,06,08,00,41,10.60
2007,06,08,00,42,10.60
2007,06,08,00,43,10.60
2007,06,08,00,44,10.60
2007,06,08,00,45,10.60
2007,06,08,00,46,10.60
2007,06,08,00,47,10.60
2007,06,08,00,48,10.60
2007,06,08,00,49,10.60
2007,06,08,00,50,10.60
2007,06,08,00,51,10.60
2007,06,08,00,52,10.60
2007,06,08,00,53,10.60
2007,06,08,00,54,10.60
2007,06,08,00,55,10.60
2007,06,08,00,56,10.50
2007,06,08,00,57,10.40
2007,06,08,00,58,10.40
2007,06,08,00,59,10.40
2007,06,08,01,00,10.40
2007,06,08,01,01,10.40
2007,06,08,01,02,10.40
2007,06,08,01,03,10.40
2007,06,08,01,04,10.40
2007,06,08,01,05,10.40
2007,06,08,01,06,10.40
2007,06,08,01,07,10.40
2007,06,08,01,08,10.40
2007,06,08,01,09,10.40
2007,06,08,01,10,10.40
2007,06,08,01,11,10.40
2007,06,08,01,12,10.40
2007,06,08,01,13,10.40
2007,06,08,01,14,10.40
2007,06,08,01,15,10.40
2007,06,08,01,16,10.40
2007,06,08,01,17,10.40
2007,06,08,01,18,10.40
2007,06,08,01,19,10.40
2007,06,08,01,20,10.40
2007,06,08,01,21,10.40
2007,06,08,01,22,10.40
2007,06,08,01,23,10.40
2007,06,08,01,24,10.40
2007,06,08,01,25,10.40
2007,06,08,01,26,10.40
2007,06,08,01,27,10.40
2007,06,08,01,28,10.40
2007,06,08,01,29,10.40
2007,06,08,01,30,10.40
2007,06,08,01,31,10.40
2007,06,08,01,32,10.40
2007,06,08,01,33,10.40
2007,06,08,01,34,10.40
2007,06,08,01,35,10.40
2007,06,08,01,36,10.40
2007,06,08,01,37,10.30
2007,06,08,01,38,10.30
2007,06,08,01,39,10.30
2007,06,08,01,40,10.20
2007,06,08,01,41,10.20
2007,06,08,01,42,10.20
2007,06,08,01,43,10.20
2007,06,08,01,44,10.20
2007,06,08,01,45,10.10
2007,06,08,01,46,10.10
2007,06,08,01,47,10.10
2007,06,08,01,48,10.10
2007,06,08,01,49,10.10
2007,06,08,01,50,10.10
2007,06,08,01,51,10.10
2007,06,08,01,52,10.00
2007,06,08,01,53,9.90
2007,06,08,01,54,9.90
2007,06,08,01,55,9.90
2007,06,08,01,56,9.90
2007,06,08,01,57,9.90
2007,06,08,01,58,9.90
2007,06,08,01,59,9.90
2007,06,08,02,00,9.90
2007,06,08,02,01,9.90
2007,06,08,02,02,9.90
2007,06,08,02,03,9.90
2007,06,08,02,04,9.90
2007,06,08,02,05,9.90
2007,06,08,02,06,9.80
2007,06,08,02,07,9.80
2007,06,08,02,08,9.80
2007,06,08,02,09,9.80
2007,06,08,02,10,9.70
2007,06,08,02,11,9.70
2007,06,08,02,12,9.70
2007,06,08,02,13,9.70
2007,06,08,02,14,9.70
2007,06,08,02,15,9.70
2007,06,08,02,16,9.70
2007,06,08,02,17,9.60
2007,06,08,02,18,9.60
2007,06,08,02,19,9.60
2007,06,08,02,20,9.50
2007,06,08,02,21,9.50
2007,06,08,02,22,9.50
2007,06,08,02,23,9.40
2007,06,08,02,24,9.40
2007,06,08,02,25,9.40
2007,06,08,02,26,9.40
2007,06,08,02,27,9.30
2007,06,08,02,28,9.30
2007,06,08,02,29,9.30
2007,06,08,02,30,9.20
2007,06,08,02,31,9.20
2007,06,08,02,32,9.20
2007,06,08,02,33,9.20
2007,06,08,02,34,9.10
2007,06,08,02,35,9.10
2007,06,08,02,36,9.00
2007,06,08,02,37,9.00
2007,06,08,02,38,9.00
2007,06,08,02,39,9.00
2007,06,08,02,40,8.90
2007,06,08,02,41,8.90
2007,06,08,02,42,8.90
2007,06,08,02,43,8.90
2007,06,08,02,44,8.80
2007,06,08,02,45,8.80
2007,06,08,02,46,8.80
2007,06,08,02,47,8.70
2007,06,08,02,48,8.70
2007,06,08,02,49,8.70
2007,06,08,02,50,8.70
2007,06,08,02,51,8.70
2007,06,08,02,52,8.70
2007,06,08,02,53,8.70
2007,06,08,02,54,8.70
2007,06,08,02,55,8.70
2007,06,08,02,56,8.60
2007,06,08,02,57,8.60
2007,06,08,02,58,8.60
2007,06,08,02,59,8.50
2007,06,08,03,00,8.50
2007,06,08,03,01,8.50
2007,06,08,03,02,8.40
2007,06,08,03,03,8.40
2007,06,08,03,04,8.30
2007,06,08,03,05,8.30
2007,06,08,03,06,8.30
2007,06,08,03,07,8.20
2007,06,08,03,08,8.20
2007,06,08,03,09,8.20
2007,06,08,03,10,8.20
2007,06,08,03,11,8.20
2007,06,08,03,12,8.20
2007,06,08,03,13,8.20
2007,06,08,03,14,8.10
2007,06,08,03,15,8.10
2007,06,08,03,16,8.10
2007,06,08,03,17,8.10
2007,06,08,03,18,8.10
2007,06,08,03,19,8.10
2007,06,08,03,20,8.10
2007,06,08,03,21,8.10
2007,06,08,03,22,8.00
2007,06,08,03,23,8.00
2007,06,08,03,24,8.00
2007,06,08,03,25,8.00
2007,06,08,03,26,8.00
2007,06,08,03,27,8.00
2007,06,08,03,28,8.00
2007,06,08,03,29,8.00
2007,06,08,03,30,8.00
2007,06,08,03,31,8.00
2007,06,08,03,32,8.00
2007,06,08,03,33,8.00
2007,06,08,03,34,8.00
2007,06,08,03,35,8.00
2007,06,08,03,36,8.00
2007,06,08,03,37,8.00
2007,06,08,03,38,8.00
2007,06,08,03,39,8.00
2007,06,08,03,40,7.90
2007,06,08,03,41,7.90
2007,06,08,03,42,7.90
2007,06,08,03,43,7.90
2007,06,08,03,44,7.90
2007,06,08,03,45,7.90
2007,06,08,03,46,7.90
2007,06,08,03,47,7.80
2007,06,08,03,48,7.80
2007,06,08,03,49,7.80
2007,06,08,03,50,7.80
2007,06,08,03,51,7.80
2007,06,08,03,52,7.80
2007,06,08,03,53,7.80
2007,06,08,03,54,7.80
2007,06,08,03,55,7.80
2007,06,08,03,56,7.80
2007,06,08,03,57,7.80
2007,06,08,03,58,7.80
2007,06,08,03,59,7.80
2007,06,08,04,00,7.80
2007,06,08,04,01,7.80
2007,06,08,04,02,7.80
2007,06,08,04,03,7.80
2007,06,08,04,04,7.80
2007,06,08,04,05,7.80
2007,06,08,04,06,7.80
2007,06,08,04,07,7.80
2007,06,08,04,08,7.80
2007,06,08,04,09,7.80
2007,06,08,04,10,7.80
2007,06,08,04,11,7.80
2007,06,08,04,12,7.80
2007,06,08,04,13,7.80
2007,06,08,04,14,7.80
2007,06,08,04,15,7.70
2007,06,08,04,16,7.70
2007,06,08,04,17,7.70
2007,06,08,04,18,7.70
2007,06,08,04,19,7.70
2007,06,08,04,20,7.70
2007,06,08,04,21,7.70
2007,06,08,04,22,7.70
2007,06,08,04,23,7.70
2007,06,08,04,24,7.70
2007,06,08,04,25,7.70
2007,06,08,04,26,7.60
2007,06,08,04,27,7.60
2007,06,08,04,28,7.60
2007,06,08,04,29,7.60
2007,06,08,04,30,7.60
2007,06,08,04,31,7.60
2007,06,08,04,32,7.60
2007,06,08,04,33,7.60
2007,06,08,04,34,7.60
2007,06,08,04,35,7.60
2007,06,08,04,36,7.60
2007,06,08,04,37,7.60
2007,06,08,04,38,7.60
2007,06,08,04,39,7.60
2007,06,08,04,40,7.60
2007,06,08,04,41,7.60
2007,06,08,04,42,7.60
2007,06,08,04,43,7.60
2007,06,08,04,44,7.50
2007,06,08,04,45,7.50
2007,06,08,04,46,7.50
2007,06,08,04,47,7.50
2007,06,08,04,48,7.40
2007,06,08,04,49,7.40
2007,06,08,04,50,7.40
2007,06,08,04,51,7.30
2007,06,08,04,52,7.30
2007,06,08,04,53,7.30
2007,06,08,04,54,7.30
2007,06,08,04,55,7.20
2007,06,08,04,56,7.20
2007,06,08,04,57,7.10
2007,06,08,04,58,7.10
2007,06,08,04,59,7.10
2007,06,08,05,00,7.10
2007,06,08,05,01,7.00
2007,06,08,05,02,7.00
2007,06,08,05,03,7.00
2007,06,08,05,04,7.00
2007,06,08,05,05,7.00
2007,06,08,05,06,6.90
2007,06,08,05,07,6.90
2007,06,08,05,08,6.90
2007,06,08,05,09,6.90
2007,06,08,05,10,6.90
2007,06,08,05,11,6.80
2007,06,08,05,12,6.80
2007,06,08,05,13,6.80
2007,06,08,05,14,6.80
2007,06,08,05,15,6.80
2007,06,08,05,16,6.80
2007,06,08,05,17,6.80
2007,06,08,05,18,6.80
2007,06,08,05,19,6.80
2007,06,08,05,20,6.80
2007,06,08,05,21,6.80
2007,06,08,05,22,6.80
2007,06,08,05,23,6.80
2007,06,08,05,24,6.80
2007,06,08,05,25,6.80
2007,06,08,05,26,6.80
2007,06,08,05,27,6.80
2007,06,08,05,28,6.80
2007,06,08,05,29,6.80
2007,06,08,05,30,6.80
2007,06,08,05,31,6.80
2007,06,08,05,32,6.80
2007,06,08,05,33,6.80
2007,06,08,05,34,6.80
2007,06,08,05,35,6.80
2007,06,08,05,36,6.80
2007,06,08,05,37,6.80
2007,06,08,05,38,6.80
2007,06,08,05,39,6.80
2007,06,08,05,40,6.80
2007,06,08,05,41,6.80
2007,06,08,05,42,6.80
2007,06,08,05,43,6.80
2007,06,08,05,44,6.80
2007,06,08,05,45,6.80
2007,06,08,05,46,6.80
2007,06,08,05,47,6.80
2007,06,08,05,48,6.80
2007,06,08,05,49,6.80
2007,06,08,05,50,6.80
2007,06,08,05,51,6.80
2007,06,08,05,52,6.80
2007,06,08,05,53,6.80
2007,06,08,05,54,6.80
2007,06,08,05,55,6.80
2007,06,08,05,56,6.80
2007,06,08,05,57,6.80
2007,06,08,05,58,6.80
2007,06,08,05,59,6.80
2007,06,08,06,00,6.80
2007,06,08,06,01,6.70
2007,06,08,06,02,6.70
2007,06,08,06,03,6.70
2007,06,08,06,04,6.70
2007,06,08,06,05,6.70
2007,06,08,06,06,6.70
2007,06,08,06,07,6.70
2007,06,08,06,08,6.70
2007,06,08,06,09,6.70
2007,06,08,06,10,6.70
2007,06,08,06,11,6.70
2007,06,08,06,12,6.70
2007,06,08,06,13,6.70
2007,06,08,06,14,6.70
2007,06,08,06,15,6.70
2007,06,08,06,16,6.70
2007,06,08,06,17,6.70
2007,06,08,06,18,6.70
2007,06,08,06,19,6.70
2007,06,08,06,20,6.70
2007,06,08,06,21,6.70
2007,06,08,06,22,6.70
2007,06,08,06,23,6.80
2007,06,08,06,24,6.80
2007,06,08,06,25,6.80
2007,06,08,06,26,6.80
2007,06,08,06,27,6.80
2007,06,08,06,28,6.80
2007,06,08,06,29,6.80
2007,06,08,06,30,6.80
2007,06,08,06,31,6.80
2007,06,08,06,32,6.80
2007,06,08,06,33,6.90
2007,06,08,06,34,6.90
2007,06,08,06,35,6.90
2007,06,08,06,36,6.90
2007,06,08,06,37,7.00
2007,06,08,06,38,7.00
2007,06,08,06,39,7.00
2007,06,08,06,40,7.10
2007,06,08,06,41,7.10
2007,06,08,06,42,7.10
2007,06,08,06,43,7.20
2007,06,08,06,44,7.20
2007,06,08,06,45,7.20
2007,06,08,06,46,7.30
2007,06,08,06,47,7.30
2007,06,08,06,48,7.30
2007,06,08,06,49,7.30
2007,06,08,06,50,7.30
2007,06,08,06,51,7.30
2007,06,08,06,52,7.30
2007,06,08,06,53,7.30
2007,06,08,06,54,7.40
2007,06,08,06,55,7.40
2007,06,08,06,56,7.40
2007,06,08,06,57,7.40
2007,06,08,06,58,7.40
2007,06,08,06,59,7.50
2007,06,08,07,00,7.50
2007,06,08,07,01,7.50
2007,06,08,07,02,7.50
2007,06,08,07,03,7.60
2007,06,08,07,04,7.60
2007,06,08,07,05,7.60
2007,06,08,07,06,7.70
2007,06,08,07,07,7.70
2007,06,08,07,08,7.70
2007,06,08,07,09,7.80
2007,06,08,07,10,7.80
2007,06,08,07,11,7.80
2007,06,08,07,12,7.90
2007,06,08,07,13,8.00
2007,06,08,07,14,8.00
2007,06,08,07,15,8.10
2007,06,08,07,16,8.20
2007,06,08,07,17,8.30
2007,06,08,07,18,8.30
2007,06,08,07,19,8.40
2007,06,08,07,20,8.50
2007,06,08,07,21,8.50
2007,06,08,07,22,8.50
2007,06,08,07,23,8.50
2007,06,08,07,24,8.50
2007,06,08,07,25,8.50
2007,06,08,07,26,8.80
2007,06,08,07,27,9.00
2007,06,08,07,28,9.10
2007,06,08,07,29,9.20
2007,06,08,07,30,9.20
2007,06,08,07,31,9.30
2007,06,08,07,32,9.40
2007,06,08,07,33,9.40
2007,06,08,07,34,9.50
2007,06,08,07,35,9.60
2007,06,08,07,36,9.70
2007,06,08,07,37,9.70
2007,06,08,07,38,9.80
2007,06,08,07,39,9.90
2007,06,08,07,40,9.90
2007,06,08,07,41,10.00
2007,06,08,07,42,10.10
2007,06,08,07,43,10.10
2007,06,08,07,44,10.20
2007,06,08,07,45,10.30
2007,06,08,07,46,10.40
2007,06,08,07,47,10.50
2007,06,08,07,48,10.60
2007,06,08,07,49,10.70
2007,06,08,07,50,10.90
2007,06,08,07,51,11.00
2007,06,08,07,52,11.10
2007,06,08,07,53,11.20
2007,06,08,07,54,11.30
2007,06,08,07,55,11.40
2007,06,08,07,56,11.50
2007,06,08,07,57,11.60
2007,06,08,07,58,11.70
2007,06,08,07,59,11.80
2007,06,08,08,00,11.80
2007,06,08,08,01,11.90
2007,06,08,08,02,11.90
2007,06,08,08,03,12.00
2007,06,08,08,04,12.10
2007,06,08,08,05,12.10
2007,06,08,08,06,12.20
2007,06,08,08,07,12.20
2007,06,08,08,08,12.30
2007,06,08,08,09,12.30
2007,06,08,08,10,12.30
2007,06,08,08,11,12.30
2007,06,08,08,12,12.30
2007,06,08,08,13,12.30
2007,06,08,08,14,12.30
2007,06,08,08,15,12.30
2007,06,08,08,16,12.30
2007,06,08,08,17,12.30
2007,06,08,08,18,12.40
2007,06,08,08,19,12.40
2007,06,08,08,20,12.40
2007,06,08,08,21,12.40
2007,06,08,08,22,12.40
2007,06,08,08,23,12.40
2007,06,08,08,24,12.50
2007,06,08,08,25,12.50
2007,06,08,08,26,12.60
2007,06,08,08,27,12.60
2007,06,08,08,28,12.70
2007,06,08,08,29,12.70
2007,06,08,08,30,12.80
2007,06,08,08,31,12.90
2007,06,08,08,32,12.90
2007,06,08,08,33,13.00
2007,06,08,08,34,13.10
2007,06,08,08,35,13.10
2007,06,08,08,36,13.10
2007,06,08,08,37,13.20
2007,06,08,08,38,13.30
2007,06,08,08,39,13.30
2007,06,08,08,40,13.50
2007,06,08,08,41,13.60
2007,06,08,08,42,13.60
2007,06,08,08,43,13.60
2007,06,08,08,44,13.60
2007,06,08,08,45,13.60
2007,06,08,08,46,13.60
2007,06,08,08,47,13.60
2007,06,08,08,48,13.70
2007,06,08,08,49,13.80
2007,06,08,08,50,13.90
2007,06,08,08,51,14.00
2007,06,08,08,52,14.20
2007,06,08,08,53,14.30
2007,06,08,08,54,14.40
2007,06,08,08,55,14.40
2007,06,08,08,56,14.50
2007,06,08,08,57,14.60
2007,06,08,08,58,14.60
2007,06,08,08,59,14.70
2007,06,08,09,00,14.80
2007,06,08,09,01,14.80
2007,06,08,09,02,14.80
2007,06,08,09,03,14.80
2007,06,08,09,04,14.80
2007,06,08,09,05,14.70
2007,06,08,09,06,14.70
2007,06,08,09,07,14.70
2007,06,08,09,08,14.60
2007,06,08,09,09,14.60
2007,06,08,09,10,14.60
2007,06,08,09,11,14.60
2007,06,08,09,12,14.30
2007,06,08,09,13,14.20
2007,06,08,09,14,14.30
2007,06,08,09,15,14.50
2007,06,08,09,16,14.60
2007,06,08,09,17,14.70
2007,06,08,09,18,14.70
2007,06,08,09,19,14.70
2007,06,08,09,20,14.70
2007,06,08,09,21,14.60
2007,06,08,09,22,14.60
2007,06,08,09,23,14.60
2007,06,08,09,24,14.60
2007,06,08,09,25,14.70
2007,06,08,09,26,14.80
2007,06,08,09,27,14.80
2007,06,08,09,28,14.90
2007,06,08,09,29,14.90
2007,06,08,09,30,15.00
2007,06,08,09,31,15.00
2007,06,08,09,32,15.00
2007,06,08,09,33,15.00
2007,06,08,09,34,15.10
2007,06,08,09,35,15.00
2007,06,08,09,36,14.90
2007,06,08,09,37,14.90
2007,06,08,09,38,14.90
2007,06,08,09,39,14.90
2007,06,08,09,40,15.00
2007,06,08,09,41,15.00
2007,06,08,09,42,15.10
2007,06,08,09,43,15.10
2007,06,08,09,44,15.00
2007,06,08,09,45,15.00
2007,06,08,09,46,15.00
2007,06,08,09,47,15.00
2007,06,08,09,48,14.90
2007,06,08,09,49,14.90
2007,06,08,09,50,15.00
2007,06,08,09,51,15.00
2007,06,08,09,52,15.00
2007,06,08,09,53,15.00
2007,06,08,09,54,15.00
2007,06,08,09,55,15.00
2007,06,08,09,56,14.90
2007,06,08,09,57,14.80
2007,06,08,09,58,14.80
2007,06,08,09,59,14.70
2007,06,08,10,00,14.60
2007,06,08,10,01,14.70
2007,06,08,10,02,14.70
2007,06,08,10,03,14.80
2007,06,08,10,04,14.90
2007,06,08,10,05,15.00
2007,06,08,10,06,15.10
2007,06,08,10,07,15.20
2007,06,08,10,08,15.20
2007,06,08,10,09,15.20
2007,06,08,10,10,15.20
2007,06,08,10,11,15.20
2007,06,08,10,12,15.00
2007,06,08,10,13,15.00
2007,06,08,10,14,15.00
2007,06,08,10,15,15.00
2007,06,08,10,16,14.90
2007,06,08,10,17,14.80
2007,06,08,10,18,14.90
2007,06,08,10,19,15.00
2007,06,08,10,20,15.10
2007,06,08,10,21,15.30
2007,06,08,10,22,15.30
2007,06,08,10,23,15.10
2007,06,08,10,24,15.10
2007,06,08,10,25,15.10
2007,06,08,10,26,15.00
2007,06,08,10,27,14.90
2007,06,08,10,28,14.90
2007,06,08,10,29,14.90
2007,06,08,10,30,14.90
2007,06,08,10,31,14.90
2007,06,08,10,32,14.90
2007,06,08,10,33,15.00
2007,06,08,10,34,15.10
2007,06,08,10,35,15.10
2007,06,08,10,36,15.00
2007,06,08,10,37,15.10
2007,06,08,10,38,15.20
2007,06,08,10,39,15.30
2007,06,08,10,40,15.40
2007,06,08,10,41,15.60
2007,06,08,10,42,15.60
2007,06,08,10,43,15.60
2007,06,08,10,44,15.70
2007,06,08,10,45,15.80
2007,06,08,10,46,16.00
2007,06,08,10,47,16.00
2007,06,08,10,48,15.70
2007,06,08,10,49,15.60
2007,06,08,10,50,15.50
2007,06,08,10,51,15.40
2007,06,08,10,52,15.40
2007,06,08,10,53,15.40
2007,06,08,10,54,15.50
2007,06,08,10,55,15.50
2007,06,08,10,56,15.50
2007,06,08,10,57,15.30
2007,06,08,10,58,15.40
2007,06,08,10,59,15.50
2007,06,08,11,00,15.70
2007,06,08,11,01,15.80
2007,06,08,11,02,15.90
2007,06,08,11,03,15.90
2007,06,08,11,04,15.80
2007,06,08,11,05,15.70
2007,06,08,11,06,15.60
2007,06,08,11,07,15.70
2007,06,08,11,08,15.80
2007,06,08,11,09,16.00
2007,06,08,11,10,15.90
2007,06,08,11,11,15.70
2007,06,08,11,12,15.40
2007,06,08,11,13,15.30
2007,06,08,11,14,15.30
2007,06,08,11,15,15.30
2007,06,08,11,16,15.30
2007,06,08,11,17,15.30
2007,06,08,11,18,15.20
2007,06,08,11,19,15.20
2007,06,08,11,20,15.30
2007,06,08,11,21,15.50
2007,06,08,11,22,15.50
2007,06,08,11,23,15.60
2007,06,08,11,24,15.60
2007,06,08,11,25,15.50
2007,06,08,11,26,15.50
2007,06,08,11,27,15.70
2007,06,08,11,28,15.80
2007,06,08,11,29,15.80
2007,06,08,11,30,15.70
2007,06,08,11,31,15.70
2007,06,08,11,32,15.70
2007,06,08,11,33,15.70
2007,06,08,11,34,15.50
2007,06,08,11,35,15.50
2007,06,08,11,36,15.40
2007,06,08,11,37,15.40
2007,06,08,11,38,15.40
2007,06,08,11,39,15.30
2007,06,08,11,40,15.30
2007,06,08,11,41,15.40
2007,06,08,11,42,15.50
2007,06,08,11,43,15.60
2007,06,08,11,44,15.70
2007,06,08,11,45,15.80
2007,06,08,11,46,15.80
2007,06,08,11,47,15.80
2007,06,08,11,48,15.60
2007,06,08,11,49,15.60
2007,06,08,11,50,15.60
2007,06,08,11,51,15.60
2007,06,08,11,52,15.50
2007,06,08,11,53,15.50
2007,06,08,11,54,15.50
2007,06,08,11,55,15.40
2007,06,08,11,56,15.40
2007,06,08,11,57,15.30
2007,06,08,11,58,15.40
2007,06,08,11,59,15.40
2007,06,08,12,00,15.40
2007,06,08,12,01,15.40
2007,06,08,12,02,15.40
2007,06,08,12,03,15.50
2007,06,08,12,04,15.50
2007,06,08,12,05,15.50
2007,06,08,12,06,15.50
2007,06,08,12,07,15.60
2007,06,08,12,08,15.70
2007,06,08,12,09,15.70
2007,06,08,12,10,15.80
2007,06,08,12,11,15.70
2007,06,08,12,12,15.70
2007,06,08,12,13,15.60
2007,06,08,12,14,15.60
2007,06,08,12,15,15.50
2007,06,08,12,16,15.50
2007,06,08,12,17,15.50
2007,06,08,12,18,15.50
2007,06,08,12,19,15.60
2007,06,08,12,20,15.80
2007,06,08,12,21,15.80
2007,06,08,12,22,16.00
2007,06,08,12,23,16.20
2007,06,08,12,24,16.20
2007,06,08,12,25,16.10
2007,06,08,12,26,15.90
2007,06,08,12,27,15.80
2007,06,08,12,28,15.70
2007,06,08,12,29,15.60
2007,06,08,12,30,15.60
2007,06,08,12,31,15.60
2007,06,08,12,32,15.70
2007,06,08,12,33,15.70
2007,06,08,12,34,15.80
2007,06,08,12,35,15.80
2007,06,08,12,36,15.70
2007,06,08,12,37,15.70
2007,06,08,12,38,15.70
2007,06,08,12,39,15.80
2007,06,08,12,40,15.80
2007,06,08,12,41,15.80
2007,06,08,12,42,15.70
2007,06,08,12,43,15.80
2007,06,08,12,44,15.90
2007,06,08,12,45,15.80
2007,06,08,12,46,15.60
2007,06,08,12,47,15.60
2007,06,08,12,48,15.60
2007,06,08,12,49,15.60
2007,06,08,12,50,15.60
2007,06,08,12,51,15.60
2007,06,08,12,52,15.60
2007,06,08,12,53,15.60
2007,06,08,12,54,15.60
2007,06,08,12,55,15.50
2007,06,08,12,56,15.60
2007,06,08,12,57,15.70
2007,06,08,12,58,15.70
2007,06,08,12,59,15.70
2007,06,08,13,00,15.70
2007,06,08,13,01,15.80
2007,06,08,13,02,15.90
2007,06,08,13,03,16.00
2007,06,08,13,04,16.30
2007,06,08,13,05,16.30
2007,06,08,13,06,16.20
2007,06,08,13,07,16.20
2007,06,08,13,08,16.20
2007,06,08,13,09,16.10
2007,06,08,13,10,15.90
2007,06,08,13,11,15.80
2007,06,08,13,12,15.80
2007,06,08,13,13,15.90
2007,06,08,13,14,15.90
2007,06,08,13,15,16.00
2007,06,08,13,16,15.80
2007,06,08,13,17,15.70
2007,06,08,13,18,15.70
2007,06,08,13,19,15.80
2007,06,08,13,20,15.80
2007,06,08,13,21,15.80
2007,06,08,13,22,15.70
2007,06,08,13,23,15.70
2007,06,08,13,24,15.70
2007,06,08,13,25,15.60
2007,06,08,13,26,15.50
2007,06,08,13,27,15.50
2007,06,08,13,28,15.70
2007,06,08,13,29,15.70
2007,06,08,13,30,15.70
2007,06,08,13,31,15.60
2007,06,08,13,32,15.60
2007,06,08,13,33,15.60
2007,06,08,13,34,15.70
2007,06,08,13,35,15.80
2007,06,08,13,36,15.80
2007,06,08,13,37,15.80
2007,06,08,13,38,15.80
2007,06,08,13,39,15.90
2007,06,08,13,40,16.10
2007,06,08,13,41,16.30
2007,06,08,13,42,16.40
2007,06,08,13,43,16.40
2007,06,08,13,44,16.30
2007,06,08,13,45,16.10
2007,06,08,13,46,16.10
2007,06,08,13,47,16.10
2007,06,08,13,48,16.10
2007,06,08,13,49,16.30
2007,06,08,13,50,16.60
2007,06,08,13,51,16.60
2007,06,08,13,52,16.40
2007,06,08,13,53,16.20
2007,06,08,13,54,16.10
2007,06,08,13,55,16.20
2007,06,08,13,56,16.20
2007,06,08,13,57,16.10
2007,06,08,13,58,16.20
2007,06,08,13,59,16.30
2007,06,08,14,00,16.40
2007,06,08,14,01,16.30
2007,06,08,14,02,16.30
2007,06,08,14,03,16.20
2007,06,08,14,04,16.20
2007,06,08,14,05,16.20
2007,06,08,14,06,16.30
2007,06,08,14,07,16.50
2007,06,08,14,08,16.60
2007,06,08,14,09,16.50
2007,06,08,14,10,16.40
2007,06,08,14,11,16.30
2007,06,08,14,12,16.30
2007,06,08,14,13,16.30
2007,06,08,14,14,16.30
2007,06,08,14,15,16.20
2007,06,08,14,16,16.20
2007,06,08,14,17,16.30
2007,06,08,14,18,16.50
2007,06,08,14,19,16.60
2007,06,08,14,20,16.70
2007,06,08,14,21,16.70
2007,06,08,14,22,16.70
2007,06,08,14,23,16.70
2007,06,08,14,24,16.50
2007,06,08,14,25,16.40
2007,06,08,14,26,16.40
2007,06,08,14,27,16.80
2007,06,08,14,28,17.10
2007,06,08,14,29,17.20
2007,06,08,14,30,17.20
2007,06,08,14,31,17.30
2007,06,08,14,32,17.30
2007,06,08,14,33,17.30
2007,06,08,14,34,17.10
2007,06,08,14,35,17.00
2007,06,08,14,36,16.90
2007,06,08,14,37,16.80
2007,06,08,14,38,16.80
2007,06,08,14,39,16.70
2007,06,08,14,40,16.50
2007,06,08,14,41,16.50
2007,06,08,14,42,16.60
2007,06,08,14,43,16.50
2007,06,08,14,44,16.60
2007,06,08,14,45,16.70
2007,06,08,14,46,16.80
2007,06,08,14,47,16.80
2007,06,08,14,48,16.80
2007,06,08,14,49,16.70
2007,06,08,14,50,16.70
2007,06,08,14,51,16.70
2007,06,08,14,52,16.70
2007,06,08,14,53,16.60
2007,06,08,14,54,16.60
2007,06,08,14,55,16.50
2007,06,08,14,56,16.40
2007,06,08,14,57,16.30
2007,06,08,14,58,16.20
2007,06,08,14,59,16.10
2007,06,08,15,00,16.20
2007,06,08,15,01,16.30
2007,06,08,15,02,16.30
2007,06,08,15,03,16.40
2007,06,08,15,04,16.40
2007,06,08,15,05,16.40
2007,06,08,15,06,16.40
2007,06,08,15,07,16.40
2007,06,08,15,08,16.40
2007,06,08,15,09,16.40
2007,06,08,15,10,16.40
2007,06,08,15,11,16.40
2007,06,08,15,12,16.30
2007,06,08,15,13,16.30
2007,06,08,15,14,16.30
2007,06,08,15,15,16.40
2007,06,08,15,16,16.40
2007,06,08,15,17,16.40
2007,06,08,15,18,16.60
2007,06,08,15,19,16.70
2007,06,08,15,20,16.70
2007,06,08,15,21,16.70
2007,06,08,15,22,16.70
2007,06,08,15,23,16.80
2007,06,08,15,24,16.80
2007,06,08,15,25,16.90
2007,06,08,15,26,16.90
2007,06,08,15,27,16.90
2007,06,08,15,28,17.00
2007,06,08,15,29,17.00
2007,06,08,15,30,17.10
2007,06,08,15,31,17.10
2007,06,08,15,32,17.00
2007,06,08,15,33,16.90
2007,06,08,15,34,16.80
2007,06,08,15,35,16.70
2007,06,08,15,36,16.60
2007,06,08,15,37,16.40
2007,06,08,15,38,16.40
2007,06,08,15,39,16.40
2007,06,08,15,40,16.60
2007,06,08,15,41,16.60
2007,06,08,15,42,16.70
2007,06,08,15,43,16.70
2007,06,08,15,44,16.80
2007,06,08,15,45,17.00
2007,06,08,15,46,17.20
2007,06,08,15,47,17.10
2007,06,08,15,48,17.10
2007,06,08,15,49,17.10
2007,06,08,15,50,17.10
2007,06,08,15,51,17.20
2007,06,08,15,52,17.20
2007,06,08,15,53,17.20
2007,06,08,15,54,17.20
2007,06,08,15,55,17.10
2007,06,08,15,56,17.10
2007,06,08,15,57,17.00
2007,06,08,15,58,17.00
2007,06,08,15,59,17.00
2007,06,08,16,00,17.00
2007,06,08,16,01,17.00
2007,06,08,16,02,16.90
2007,06,08,16,03,16.90
2007,06,08,16,04,16.80
2007,06,08,16,05,16.80
2007,06,08,16,06,17.00
2007,06,08,16,07,17.00
2007,06,08,16,08,17.10
2007,06,08,16,09,17.30
2007,06,08,16,10,17.30
2007,06,08,16,11,17.30
2007,06,08,16,12,17.20
2007,06,08,16,13,17.10
2007,06,08,16,14,17.10
2007,06,08,16,15,17.00
2007,06,08,16,16,16.90
2007,06,08,16,17,16.90
2007,06,08,16,18,16.90
2007,06,08,16,19,17.00
2007,06,08,16,20,17.10
2007,06,08,16,21,16.90
2007,06,08,16,22,16.80
2007,06,08,16,23,16.90
2007,06,08,16,24,16.90
2007,06,08,16,25,16.90
2007,06,08,16,26,16.90
2007,06,08,16,27,16.90
2007,06,08,16,28,17.00
2007,06,08,16,29,17.20
2007,06,08,16,30,17.30
2007,06,08,16,31,17.30
2007,06,08,16,32,17.40
2007,06,08,16,33,17.40
2007,06,08,16,34,17.30
2007,06,08,16,35,17.20
2007,06,08,16,36,17.10
2007,06,08,16,37,17.00
2007,06,08,16,38,16.90
2007,06,08,16,39,17.00
2007,06,08,16,40,17.00
2007,06,08,16,41,17.00
2007,06,08,16,42,17.00
2007,06,08,16,43,17.00
2007,06,08,16,44,16.90
2007,06,08,16,45,16.90
2007,06,08,16,46,16.90
2007,06,08,16,47,17.00
2007,06,08,16,48,17.10
2007,06,08,16,49,17.20
2007,06,08,16,50,17.30
2007,06,08,16,51,17.30
2007,06,08,16,52,17.30
2007,06,08,16,53,17.30
2007,06,08,16,54,17.30
2007,06,08,16,55,17.30
2007,06,08,16,56,17.40
2007,06,08,16,57,17.50
2007,06,08,16,58,17.70
2007,06,08,16,59,17.90
2007,06,08,17,00,17.90
2007,06,08,17,01,17.80
2007,06,08,17,02,17.70
2007,06,08,17,03,17.60
2007,06,08,17,04,17.50
2007,06,08,17,05,17.50
2007,06,08,17,06,17.50
2007,06,08,17,07,17.40
2007,06,08,17,08,17.30
2007,06,08,17,09,17.30
2007,06,08,17,10,17.30
2007,06,08,17,11,17.30
2007,06,08,17,12,17.30
2007,06,08,17,13,17.30
2007,06,08,17,14,17.30
2007,06,08,17,15,17.30
2007,06,08,17,16,17.30
2007,06,08,17,17,17.30
2007,06,08,17,18,17.30
2007,06,08,17,19,17.30
2007,06,08,17,20,17.30
2007,06,08,17,21,17.30
2007,06,08,17,22,17.30
2007,06,08,17,23,17.30
2007,06,08,17,24,17.30
2007,06,08,17,25,17.20
2007,06,08,17,26,17.20
2007,06,08,17,27,17.20
2007,06,08,17,28,17.20
2007,06,08,17,29,17.10
2007,06,08,17,30,17.10
2007,06,08,17,31,17.00
2007,06,08,17,32,17.10
2007,06,08,17,33,17.20
2007,06,08,17,34,17.20